CAPE
0 0 0 0 0 0 0 0 22 3 1 0 0 0 165 446 630 561 1758 568 326 1279 1394 948 623 592 793 1166 1394 942 494 292 104 95 8 18 120 198 119 380 806 828 412 36 0 0 0 0 0
0 0 0 0 0 0 0 23 4 0 0 0 0 0 260 659 1346 332 1462 495 603 1249 1359 1111 558 625 829 1124 1245 973 687 462 217 99 48 92 148 177 76 212 705 537 121 0 0 0 0 0 0
0 0 0 0 0 0 50 44 0 0 0 0 0 99 399 1138 1224 1415 1092 615 996 1079 1157 1294 542 574 822 1060 1176 1042 921 622 206 101 148 161 164 107 47 148 254 140 29 0 0 0 6 12 0
0 0 0 0 0 0 5 10 3 0 0 0 0 204 925 933 884 940 718 632 887 883 1095 955 454 424 606 943 1093 1073 937 716 388 202 295 185 119 14 51 141 99 129 40 0 0 0 40 100 39
0 0 0 0 0 0 25 13 1 0 0 0 0 112 1195 1506 1167 834 650 630 643 739 1408 758 387 333 409 658 929 955 856 742 597 539 416 208 63 0 48 61 71 83 8 0 0 0 37 77 66
0 0 0 0 0 0 14 3 0 0 0 0 0 101 1098 1639 1161 1039 718 578 642 720 1386 745 424 258 275 381 680 807 755 676 649 596 374 118 1 0 29 19 18 19 0 0 0 0 0 1 6
0 0 0 0 12 19 6 0 0 0 0 0 0 36 1474 1523 1284 1188 907 653 676 798 1011 643 261 396 280 193 229 473 572 573 553 446 132 0 0 5 3 0 1 0 0 0 0 0 0 0 0
0 0 0 0 0 16 4 0 0 0 0 0 0 188 1189 1592 1556 1424 1121 813 756 713 1040 732 332 178 156 205 105 9 3 8 0 0 0 0 0 0 0 9 0 0 0 0 0 0 0 0 0
0 0 0 0 0 1 0 0 0 0 0 0 1 197 2043 2235 1796 1544 1362 979 810 642 879 592 348 214 116 65 177 34 8 5 0 0 0 0 0 30 79 12 35 0 0 0 0 0 0 0 0
0 0 0 0 0 0 0 0 0 0 0 0 0 685 1721 2024 1722 1419 1348 1071 896 730 756 623 374 392 236 133 403 34 28 9 0 0 23 0 0 1 0 2 0 14 0 0 0 0 0 0 0
0 0 0 0 0 0 0 1 0 0 0 0 0 99 1065 1436 1368 1132 959 825 843 752 741 735 588 629 388 156 604 154 138 54 12 0 16 0 0 0 0 26 65 31 0 4 0 4 0 0 0
0 0 0 0 0 0 0 0 0 0 0 0 0 0 217 1031 1032 835 645 669 728 814 894 820 1032 1029 883 435 376 542 229 351 293 210 139 210 1 19 24 1 14 110 57 111 33 69 74 50 39
19 18 2 0 0 0 0 0 0 0 0 0 0 0 0 764 751 540 604 653 742 902 1112 1221 1564 1631 1481 1364 685 675 564 475 536 652 769 816 594 535 424 294 172 135 158 129 175 131 150 190 326
34 57 15 18 1 1 0 0 0 0 0 0 0 0 0 0 586 694 797 903 960 1143 1283 1444 1597 2153 2108 1953 1465 1067 1078 937 760 778 891 1294 1188 1215 848 994 917 834 598 584 557 676 818 1026 996
117 44 1 12 0 3 0 0 0 0 0 0 0 0 0 0 0 119 554 887 422 267 514 1297 1657 2006 2535 2435 2196 1734 1419 1288 1051 946 1150 1286 1616 1442 1295 807 855 727 812 844 924 967 1085 1078 791
88 79 51 10 0 0 0 0 0 0 0 0 0 0 0 0 0 0 0 0 0 0 0 192 362 887 2362 2588 2527 2263 1918 1742 1538 1230 1220 1457 1659 1727 1590 1326 1183 1320 1475 1278 1202 1215 1191 1223 1084
19 43 1 1 0 0 0 0 0 0 0 0 0 0 0 0 0 0 0 0 0 0 0 0 139 145 810 2371 2310 2336 2256 2133 1880 1715 1401 1410 1786 1674 1578 1422 1268 1600 1877 1619 1369 1394 1442 1276 1267
0 13 29 0 0 0 0 0 0 0 0 0 0 0 0 0 0 0 0 0 0 0 0 0 23 425 498 1089 2263 1861 1775 1844 1824 1860 1673 1334 1736 1551 1636 1512 1646 2060 1763 1416 1451 1739 1576 1904 1450
0 0 0 0 0 0 0 0 0 0 0 0 0 0 0 0 0 0 0 0 0 0 0 0 3 385 913 651 907 1352 1252 1491 1767 1909 2080 1665 1736 1685 1777 1837 2276 2187 2182 1778 1972 1760 1573 1540 1123
0 4 0 0 0 0 0 0 0 0 0 0 0 0 0 0 0 0 0 0 0 0 0 0 0 85 1153 794 1114 801 962 1052 1494 1951 2121 1775 1860 2131 2253 2416 2091 1797 1015 2021 1839 1969 1698 1112 803
0 0 0 0 0 0 0 0 0 0 0 0 0 1 0 3 2 7 5 3 0 0 0 0 0 63 719 1088 1072 1358 1623 2052 1851 1840 2002 1893 2105 2350 2245 2272 2297 1847 1815 1087 1879 1498 1579 1012 567
0 0 0 0 0 0 0 0 0 0 0 0 0 0 0 8 5 4 13 12 0 0 0 0 39 156 412 1349 1006 1515 1505 1145 1192 1609 1489 2239 2503 2417 2213 2390 2534 2329 1549 784 517 883 906 1179 808
0 0 0 0 0 0 0 0 0 0 0 0 0 0 0 4 0 0 9 30 66 125 97 116 174 538 1038 1189 1613 1211 1858 1106 1209 1394 2270 2645 2590 2192 2309 2151 1479 865 717 269 461 425 615 514 350
0 0 0 0 0 0 0 0 0 0 0 0 0 0 0 0 0 0 0 0 74 182 424 566 684 767 749 934 1188 1581 1742 1771 1869 1714 1934 1741 1482 1262 705 475 427 378 239 134 300 329 307 410 227
0 0 0 0 0 0 0 0 0 0 0 22 0 0 0 0 0 0 0 0 0 16 68 179 308 369 429 548 710 948 1309 1671 1916 1429 1415 1090 685 475 425 237 277 225 271 189 143 99 72 56 30
0 0 5 1 0 0 0 0 42 0 9 0 0 0 0 0 0 0 0 0 0 0 0 0 0 0 0 2 6 46 104 197 276 304 228 148 104 117 231 355 253 205 98 116 118 19 1 3 10
0 0 0 1 3 2 0 56 21 0 0 0 0 0 0 0 0 0 1 0 0 0 0 0 0 0 0 0 0 0 0 9 40 119 178 3 37 41 40 29 110 266 161 132 113 37 9 33 0
3 8 1 0 7 16 8 18 21 0 0 0 0 0 0 0 0 0 0 10 0 0 0 0 0 0 0 0 0 0 0 0 0 0 19 41 64 139 246 240 211 198 260 273 308 106 63 128 8
0 16 9 16 10 1 14 49 75 27 28 0 6 21 1 0 0 5 5 1 0 0 0 0 0 0 0 0 0 0 0 0 0 0 0 0 0 10 20 50 71 112 187 299 313 319 384 242 240
33 0 9 14 0 41 36 23 13 25 53 25 40 27 10 0 0 0 0 0 0 0 0 0 0 0 0 0 0 0 0 0 0 0 0 0 0 0 0 0 0 0 14 95 200 224 253 259 223
CIN
0 0 0 0 0 0 0 0 -9 -6 -1 0 0 0 -6 -34 -61 -50 -57 -135 -181 -287 -354 -417 -441 -399 -321 -220 -162 -207 -274 -304 -352 -321 -360 -335 -231 -171 -193 -104 -62 -49 -71 -248 0 0 0 0 0
0 0 0 0 0 0 0 -7 -5 0 0 0 0 -7 -14 -12 -48 -158 -132 -171 -198 -300 -349 -364 -477 -413 -322 -232 -184 -197 -214 -247 -288 -310 -308 -245 -207 -175 -207 -123 -44 -55 -145 0 0 0 0 0 0
0 0 0 0 0 0 -8 -9 -0 0 0 0 -0 -21 -7 -14 -39 -63 -135 -189 -244 -312 -332 -351 -481 -431 -337 -252 -199 -181 -171 -202 -276 -291 -228 -202 -177 -188 -229 -129 -92 -134 -271 0 0 0 -175 -189 0
0 0 0 0 0 0 -9 -52 -13 0 0 0 -0 -2 -42 -55 -51 -97 -197 -186 -242 -259 -299 -452 -501 -460 -386 -277 -226 -184 -166 -176 -216 -251 -185 -183 -188 -281 -238 -140 -177 -153 -272 0 0 0 -213 -234 -205
0 0 0 0 0 0 -7 -25 -4 0 0 0 -1 -4 -15 -52 -93 -141 -175 -176 -196 -217 -245 -461 -505 -483 -420 -318 -239 -201 -178 -167 -165 -158 -151 -176 -228 0 -265 -239 -231 -250 -257 0 0 0 -235 -193 -206
0 0 0 0 0 0 -11 -3 -0 0 0 0 0 -6 -7 -56 -91 -128 -153 -167 -165 -210 -255 -430 -479 -502 -442 -377 -270 -225 -195 -171 -145 -134 -155 -202 -85 0 -267 -228 -240 -265 0 0 0 0 0 -62 -141
0 0 0 0 -9 -3 -9 0 0 0 0 0 0 -12 -22 -27 -54 -90 -119 -157 -154 -198 -243 -395 -462 -449 -465 -435 -387 -295 -232 -194 -172 -167 -232 0 0 -147 -54 0 -33 0 0 0 0 0 0 0 0
0 0 0 0 0 -13 -16 -1 0 0 0 0 0 -6 -9 -13 -53 -65 -73 -102 -140 -176 -201 -306 -380 -434 -455 -420 -449 -454 -416 -392 0 0 0 0 0 0 0 -285 -6 0 0 0 0 0 0 0 0
0 0 0 0 0 -3 0 0 0 0 0 0 -1 -16 -9 -31 -39 -37 -44 -76 -98 -127 -162 -227 -282 -349 -365 -379 -385 -451 -452 -124 0 0 0 0 0 -243 -239 -265 -223 0 0 0 0 0 0 0 0
0 0 0 0 0 0 0 0 0 0 0 0 0 -29 -16 -25 -22 -12 -19 -32 -57 -102 -110 -150 -196 -237 -263 -275 -270 -392 -361 -149 0 0 -262 0 0 -61 0 -85 0 -277 0 0 0 0 0 0 0
0 0 0 0 0 0 0 -2 0 0 0 0 0 -3 -9 -16 -10 -3 -2 -3 -25 -62 -72 -103 -149 -180 -189 -172 -189 -265 -243 -263 -242 0 -183 0 0 0 0 -117 -136 -210 0 -191 0 -270 0 0 0
0 0 0 0 0 0 0 0 0 0 0 0 0 0 -3 -4 -2 -4 -5 -4 -3 -31 -42 -80 -129 -152 -147 -124 -151 -151 -173 -154 -156 -176 -181 -131 -20 -123 -109 -11 -121 -87 -127 -103 -144 -104 -125 -143 -180
-9 -5 -3 0 0 0 0 0 0 0 0 0 0 0 0 -3 -4 -5 -2 -4 -3 -4 -24 -50 -75 -116 -126 -110 -97 -103 -105 -92 -74 -62 -69 -57 -42 -22 -18 -34 -44 -30 -36 -44 -53 -76 -75 -83 -84
-6 -3 -9 -5 -1 -1 0 0 0 0 0 0 0 0 0 0 -5 -5 -4 -5 -3 -3 -3 -23 -57 -91 -108 -118 -96 -86 -76 -42 -60 -31 -33 -16 -11 -3 -4 -1 -1 -1 -1 -2 -2 -1 -3 -5 -14
-6 -8 -3 -4 -0 -5 0 0 0 0 0 0 0 0 0 0 -0 -9 -4 -8 -7 -14 -27 -17 -37 -57 -81 -87 -85 -73 -49 -47 -16 -24 -7 -11 -4 -1 -1 -6 -3 -4 -0 -2 -3 -4 -6 -21 -54
-5 -5 -4 -7 -0 -0 0 0 0 0 0 0 0 0 0 0 0 0 0 0 0 0 0 -55 -41 -41 -63 -55 -34 -34 -23 -7 -8 -2 -3 -7 -8 -9 -8 -1 -2 -2 -2 -2 -1 -1 -4 -1 -2
-10 -9 -3 -1 0 0 0 0 0 0 0 0 0 0 0 0 0 0 0 0 0 0 0 0 -54 -45 -52 -44 -38 -22 -7 -4 -2 -2 -3 -10 -6 -9 -22 -14 -6 -26 -1 -1 -2 -1 -2 -3 -2
0 -7 -7 0 0 0 0 0 0 0 0 0 0 0 0 0 0 0 0 0 0 0 0 0 -74 -59 -41 -24 -35 -21 -7 -3 -2 -1 -1 -1 -5 -18 -34 -6 -1 -1 -1 -2 -1 -2 -2 -3 -3
0 0 0 0 0 0 0 0 0 0 0 0 0 0 0 0 0 0 0 0 0 0 0 0 -38 -71 -58 -46 -37 -35 -21 -5 -2 -1 -2 -2 -11 -3 -8 -2 -1 -1 -1 -2 -5 -1 -2 -1 -2
0 -7 0 0 0 0 0 0 0 0 0 0 0 0 0 0 0 0 0 0 0 0 0 0 0 -99 -73 -57 -54 -30 -23 -4 -1 -2 -5 -2 -4 -4 -2 -0 -1 -1 -1 -1 -1 -1 -1 -2 -2
-3 0 0 0 0 0 0 0 0 0 0 0 0 -2 0 -34 -66 -90 -122 -79 0 0 0 0 0 -155 -105 -71 -55 -58 -35 -13 -1 -1 -1 -2 -10 -5 -10 -1 -1 -1 -1 -1 -5 -1 -6 -27 -45
-1 0 0 0 0 0 0 0 0 0 0 0 0 0 -8 -107 -100 -119 -114 -99 0 0 0 0 -189 -169 -142 -80 -80 -32 -24 -19 -1 -3 -2 -1 -1 -1 -1 -2 -0 -1 -5 -20 -37 -33 -42 -23 -35
0 -1 0 0 0 0 0 0 0 0 0 0 0 0 -45 -148 0 0 -131 -121 -98 -100 -130 -177 -173 -150 -102 -82 -73 -35 -23 -25 -2 -4 -19 -2 -2 -1 -1 -1 -11 -55 -77 -64 -67 -47 -40 -44 -53
0 0 0 0 0 0 0 0 0 0 0 0 0 0 0 0 0 0 0 0 -95 -69 -91 -114 -120 -119 -120 -110 -78 -26 -7 -13 -5 -2 -4 -4 -1 -5 -45 -71 -93 -93 -98 -117 -79 -95 -80 -77 -87
0 0 0 0 0 0 0 0 0 0 0 -18 0 0 0 0 0 0 0 0 0 -40 -118 -126 -127 -114 -108 -89 -69 -41 -18 -5 -1 -8 -1 -2 -2 -10 -51 -112 -108 -108 -102 -104 -107 -122 -163 -173 -207
0 0 -3 -4 0 0 0 0 -11 -4 -44 0 0 0 0 0 0 0 0 0 0 0 0 0 0 0 0 -31 -27 -216 -177 -65 -43 -49 -34 -47 -49 -27 -6 -24 -62 -71 -89 -78 -101 -160 -23 -179 -158
0 0 -0 -4 -17 -3 0 -16 -63 0 0 0 0 0 0 0 0 0 -1 -0 0 0 0 0 0 0 0 0 0 0 0 -112 -118 -66 -52 -11 -81 -85 -60 -69 -46 -33 -53 -53 -49 -84 -88 -33 0
-4 -2 -3 0 -5 -8 -9 -8 -5 0 0 0 0 0 0 0 0 -0 0 -1 0 0 0 0 0 0 0 0 0 0 0 0 0 -59 -107 -96 -87 -70 -52 -47 -21 -13 -13 -2 -0 -6 -6 -4 -50
0 -7 -6 -5 -6 -6 -5 -12 -18 -4 -5 -1 -1 -4 -2 0 -1 -2 -1 -1 0 0 0 0 0 0 0 0 0 0 0 0 0 0 0 0 0 -39 -126 -87 -69 -28 -5 -1 -2 -6 -5 -5 -2
-8 0 -4 -5 -0 -5 -15 -35 -39 -5 -3 -4 -1 -4 -3 0 -0 -0 -0 0 0 0 0 0 0 0 0 0 0 0 0 0 0 0 0 0 0 0 0 0 0 -5 -72 -13 -1 -4 -4 -1 -2
Wind_Speed
29 29 27 26 25 26 34 34 19 16 18 15 17 18 14 12 10 10 7 7 11 14 20 23 22 22 21 20 21 21 21 20 20 21 21 21 21 21 21 21 20 19 18 18 18 18 18 18 19
29 28 28 27 30 35 34 28 21 28 17 19 17 15 15 10 11 7 7 10 11 12 16 19 19 18 19 18 19 19 20 19 19 19 18 19 18 18 18 17 16 16 16 16 16 16 17 17 17
29 28 30 29 35 38 31 13 19 15 20 23 19 20 16 14 9 8 11 14 13 13 15 14 17 16 17 17 18 18 18 17 17 16 16 16 16 15 15 15 14 14 14 14 15 15 15 15 16
27 29 33 34 38 37 37 20 16 19 20 20 20 16 13 11 9 6 13 14 11 12 12 14 15 15 16 16 17 17 17 16 15 15 15 15 14 14 13 13 12 12 12 13 13 13 13 14 14
27 31 34 35 40 38 30 14 20 26 20 19 18 16 13 11 7 6 10 12 11 10 11 12 12 12 13 14 15 14 14 15 15 14 13 13 12 12 11 10 10 10 11 11 12 12 12 12 12
32 33 39 42 35 40 25 27 25 25 22 20 22 18 11 6 4 4 6 8 11 8 9 11 11 9 10 11 12 13 13 13 12 11 11 11 10 10 9 8 8 9 9 10 10 11 11 11 11
35 36 45 43 38 32 28 23 27 26 26 23 20 21 9 3 2 2 3 5 9 10 10 9 12 11 9 10 11 11 11 11 10 10 9 9 9 8 7 7 6 7 8 8 9 10 10 10 10
36 40 45 45 40 34 23 22 26 21 22 18 18 18 11 5 1 2 1 2 6 6 9 10 9 12 11 9 10 9 9 8 8 7 7 7 7 6 5 5 5 5 6 7 7 8 9 9 9
29 37 42 42 42 28 19 25 20 22 24 19 18 17 5 2 3 3 3 2 2 3 4 6 7 9 9 9 8 7 6 6 6 6 6 5 5 4 3 2 3 4 5 6 7 8 9 10 9
36 40 37 25 26 26 25 25 18 23 22 20 18 15 10 7 5 5 5 4 2 1 2 3 4 6 7 7 6 5 5 4 4 4 3 3 2 2 2 3 3 5 6 6 7 8 9 9 10
38 44 34 21 25 29 27 23 22 25 22 18 16 16 15 13 10 9 8 6 5 2 1 1 2 3 3 4 5 4 4 3 3 2 1 1 2 4 5 6 6 7 6 7 6 8 9 8 9
41 40 41 27 28 32 32 32 26 26 27 21 20 21 22 16 14 12 10 5 6 4 2 1 1 0 2 4 4 4 3 3 3 1 2 3 4 6 7 6 7 5 6 8 9 9 10 12 14
42 36 41 44 33 35 35 37 32 32 30 28 28 24 23 19 18 17 13 8 5 6 5 3 1 3 4 8 7 7 6 5 5 5 3 4 5 7 6 8 9 8 8 8 10 11 13 13 13
36 38 35 35 39 35 41 43 38 39 32 30 30 30 23 21 19 15 18 15 12 9 7 6 5 6 8 9 14 10 10 10 8 8 6 5 6 7 7 8 9 10 10 10 10 10 13 12 14
36 36 43 38 37 39 37 53 43 36 34 34 33 30 28 22 21 19 17 18 16 13 12 10 11 10 10 12 14 16 14 11 11 9 8 6 6 9 9 9 10 11 11 12 15 16 15 15 17
36 38 43 38 36 35 36 54 47 39 39 41 36 32 28 26 25 21 21 17 16 18 13 14 13 13 15 17 16 16 15 14 13 12 10 9 8 10 9 11 11 12 12 14 15 19 16 17 19
37 41 42 36 29 30 34 45 40 38 36 37 37 34 30 27 25 25 24 22 21 20 21 19 18 18 16 16 17 16 16 14 14 13 11 10 9 9 11 11 13 11 16 16 17 18 18 21 23
40 44 41 41 30 33 33 38 37 35 36 31 34 34 28 28 26 25 25 27 25 24 24 23 21 20 19 16 15 17 15 14 13 13 12 10 10 10 9 11 15 12 14 17 17 20 22 26 25
38 39 42 35 31 32 35 37 31 27 37 32 34 34 34 32 28 28 28 28 28 30 29 27 25 23 17 16 16 16 16 15 14 13 11 10 11 10 10 12 11 14 18 21 24 22 21 22 23
38 32 37 27 31 31 31 35 31 22 32 27 31 30 25 24 24 24 25 25 26 28 27 26 24 21 17 16 16 17 15 14 13 12 12 11 11 12 12 14 15 14 16 16 19 19 21 22 22
32 32 30 30 28 30 31 36 25 24 25 28 24 20 18 22 22 22 21 22 22 21 21 21 20 18 17 16 15 16 17 17 13 13 12 12 12 13 14 13 14 15 15 17 14 16 19 21 22
31 25 27 25 28 36 32 37 32 25 27 30 24 23 22 21 20 20 20 21 20 20 19 18 17 16 16 14 17 15 16 18 14 14 13 11 12 13 12 11 11 13 14 15 16 18 18 17 22
34 22 26 24 27 30 28 33 32 16 22 29 24 20 19 15 17 18 19 20 20 19 18 18 17 17 18 16 17 18 18 20 18 17 13 12 12 13 11 11 12 14 16 18 19 19 18 21 23
35 17 21 24 29 37 34 28 27 17 20 18 10 11 16 15 15 16 17 18 20 18 17 17 17 18 18 18 18 20 23 21 22 17 19 17 15 13 14 14 16 17 18 20 20 20 22 24 28
32 23 23 27 33 35 25 31 18 10 8 5 3 10 12 13 14 17 17 17 18 18 17 16 17 17 17 17 18 19 20 22 22 21 20 18 16 17 17 19 18 20 22 24 24 24 26 28 29
34 33 28 24 29 31 18 23 12 6 5 8 8 9 11 12 13 15 18 17 17 18 18 17 17 17 17 18 18 19 21 19 19 19 24 19 22 19 17 19 23 24 26 26 27 27 28 30 30
23 39 36 28 25 20 18 12 10 8 9 8 11 11 12 15 15 16 16 17 17 18 19 18 18 18 19 19 19 19 20 21 23 24 24 25 26 28 27 27 27 29 30 30 29 30 31 31 31
27 23 27 27 27 32 25 19 22 10 8 8 8 11 13 15 15 16 17 17 18 16 17 19 20 20 21 21 21 22 22 23 24 25 27 28 29 31 32 32 32 32 32 32 32 32 33 33 34
26 27 24 27 24 27 30 15 7 7 8 6 7 9 13 16 18 17 18 17 18 19 20 21 22 23 23 24 25 25 26 27 27 28 29 30 31 32 32 33 34 34 34 34 35 36 38 39 38
26 24 27 28 31 26 24 16 13 14 8 8 9 11 16 19 21 20 20 20 22 22 23 23 25 26 27 28 29 30 30 30 32 32 33 33 35 36 36 37 37 38 38 38 38 39 40 40 40
Wind_Direction
257 255 257 261 259 257 244 242 271 270 267 278 273 254 290 292 314 284 334 353 75 80 99 108 101 100 92 92 99 104 104 101 100 98 97 98 96 97 96 95 90 79 70 67 65 64 64 62 62
261 259 255 259 254 246 248 257 263 253 276 271 270 282 274 321 359 5 28 70 81 78 95 100 98 91 89 87 91 100 102 101 100 97 95 96 93 90 90 87 78 65 61 59 57 57 57 56 57
258 257 253 254 249 244 251 263 270 273 270 258 264 265 274 325 356 22 64 92 85 86 93 92 97 90 88 86 91 97 100 100 97 94 92 92 89 84 85 81 73 61 54 52 51 54 53 52 52
259 252 250 251 245 244 245 279 286 264 269 270 267 276 300 323 321 6 84 96 85 84 86 95 98 94 91 91 94 100 103 98 95 94 93 92 89 83 82 76 65 58 50 44 46 47 48 47 48
257 251 250 250 246 245 259 292 274 264 269 267 270 276 285 304 332 52 85 90 85 80 75 94 95 89 89 91 95 96 99 103 101 95 91 91 87 84 80 72 63 52 48 44 45 48 44 42 40
250 248 247 246 250 246 269 268 274 270 273 269 262 273 289 317 337 33 77 80 86 67 68 89 96 87 85 86 92 98 100 104 101 94 92 91 87 84 79 69 59 47 40 40 39 35 34 35 33
248 245 244 247 249 253 259 270 267 268 268 268 270 262 283 284 332 21 53 71 77 75 71 85 100 94 86 90 95 96 97 99 96 94 91 91 88 81 73 66 54 41 36 32 24 22 23 23 25
252 248 246 244 248 252 263 264 263 270 273 292 267 277 261 229 252 314 21 65 66 61 76 88 93 103 100 95 97 94 94 93 91 89 88 87 80 74 71 62 45 33 27 22 17 16 11 12 11
249 246 244 245 244 254 265 262 265 273 271 280 272 290 326 100 230 266 283 303 24 25 49 87 91 102 101 92 93 84 78 75 76 82 86 83 76 71 65 44 22 21 15 5 2 0 358 359 360
244 243 246 271 249 255 272 256 276 267 264 275 272 282 285 273 265 264 272 276 282 315 53 78 83 93 98 81 74 86 75 77 86 89 85 83 68 36 21 355 2 346 341 340 341 345 344 347 349
242 243 245 261 249 261 266 263 270 264 262 274 284 276 269 268 264 268 274 276 271 276 322 51 54 84 73 47 46 49 61 54 58 80 57 27 353 341 336 339 334 327 324 329 328 331 331 334 340
242 245 243 257 261 258 260 273 268 260 257 285 275 284 278 267 264 265 272 264 270 271 285 299 120 30 328 345 5 16 13 16 8 358 333 335 322 324 324 321 325 336 329 327 323 328 328 329 328
242 248 246 248 264 262 266 262 266 264 264 272 274 279 275 268 267 267 272 277 260 277 283 285 256 291 305 307 325 325 329 328 324 326 312 303 310 316 321 320 322 326 330 326 327 325 325 326 324
244 246 255 245 253 265 262 257 263 263 266 271 270 267 273 272 268 265 267 273 281 285 287 288 278 289 296 297 300 310 311 312 310 309 307 291 299 310 311 316 314 314 318 322 326 326 323 322 322
246 248 249 250 255 262 269 251 253 267 266 267 267 266 264 269 269 270 271 274 282 287 290 285 286 286 291 293 295 297 303 302 302 298 297 293 287 301 306 311 315 315 316 319 320 320 320 320 320
246 250 245 248 254 259 262 252 248 265 271 263 263 264 264 266 266 270 275 279 281 286 288 288 287 286 288 292 296 297 296 296 295 294 294 285 285 296 301 305 313 317 317 317 317 314 319 318 316
241 240 242 253 247 258 260 257 257 265 267 264 260 260 263 266 267 272 275 279 282 285 286 287 287 289 289 294 297 296 296 291 290 289 286 284 281 284 293 303 307 304 308 314 314 314 314 315 315
239 241 247 247 247 255 260 261 255 258 267 268 260 262 263 266 271 278 278 277 280 285 285 286 286 287 292 296 298 299 297 292 287 283 280 279 281 280 287 298 304 307 308 311 312 315 316 315 316
244 246 244 252 248 250 257 258 263 262 260 269 264 260 264 268 276 283 283 284 284 284 283 282 283 286 286 289 294 300 297 296 292 287 276 276 278 279 279 293 295 302 306 310 314 315 314 314 315
243 244 243 252 250 247 255 258 265 269 255 262 263 264 263 269 278 285 290 292 289 286 284 282 282 282 283 286 291 301 307 304 297 292 281 278 271 280 284 290 296 302 309 312 312 314 314 314 317
242 246 245 248 243 249 253 254 262 267 263 264 263 270 271 276 282 289 296 298 298 297 295 294 289 284 283 282 289 298 303 309 302 296 286 282 276 276 281 287 290 301 304 309 309 314 315 314 318
240 247 249 246 241 244 248 251 256 261 255 255 260 264 271 281 290 296 300 306 308 306 308 306 301 296 292 288 286 291 296 299 297 297 289 286 285 281 276 278 280 293 302 306 310 310 311 314 316
235 246 248 251 248 252 244 253 267 239 256 248 252 270 278 300 305 308 311 312 313 317 314 311 307 305 300 297 291 291 292 298 298 299 302 292 292 289 281 283 288 296 299 302 306 310 310 311 311
225 252 252 252 253 246 248 255 267 245 262 250 258 284 292 305 314 316 321 322 320 327 327 322 317 313 307 302 299 294 296 295 300 295 298 296 291 288 287 289 293 296 298 300 302 303 303 304 306
229 239 241 244 244 248 257 251 274 265 246 189 248 290 300 305 312 316 324 330 331 332 332 332 329 326 325 321 316 310 305 300 296 295 294 291 288 290 286 289 291 293 295 298 298 299 299 301 301
231 231 240 249 249 252 260 253 272 267 280 284 295 308 308 313 320 323 320 326 331 332 335 337 335 333 332 327 324 319 313 310 309 297 305 294 296 295 296 292 292 292 295 294 295 296 296 297 298
246 231 236 270 267 261 255 276 288 277 280 287 289 297 306 310 317 319 324 324 327 331 331 334 334 334 333 331 328 325 321 316 310 308 304 300 299 295 298 298 293 292 292 293 293 293 294 296 295
251 250 250 253 258 249 265 274 283 253 270 283 288 297 307 312 319 323 325 328 327 332 334 332 331 328 329 327 325 322 319 316 312 308 304 301 299 297 296 297 297 294 292 293 292 292 293 292 291
248 250 251 259 261 263 262 291 348 283 278 289 296 310 314 316 320 324 324 326 326 328 329 328 324 323 322 321 320 318 315 312 310 308 305 303 301 300 299 297 296 294 293 292 291 290 291 291 292
259 254 255 258 256 266 274 297 311 309 308 299 294 308 317 321 320 317 319 320 319 321 321 322 321 318 317 316 314 312 310 309 306 304 303 302 301 299 298 297 296 294 293 292 290 289 288 288 287